Content
SEND FEEDBACK

Daily
Averages
Monthly
Summary
United States of America

MCLAUGHLIN, SOUTH DAKOTA


Home > North America > United States > South Dakota
Elevation: 1670 feet     Latitude: 45 41N     Longitude: 100 48W

WEATHER
 
SELECT A DAY
Number of Records: 176,924;   Date Range: 1/2/95 - 7/23/14
 
SHARE

PRINT THIS DATA

[ ← Previous Day ]
WEATHER ALMANAC - FEBRUARY 5, 2013
[ Next Day → ]
[ °C ]   °F
Weather ElementAverageHighLow
Temperature30.5 °F37.9 °F (3:52 pm)21 °F (10:52 pm)
Dewpoint23.6 °F27 °F (1:52 am)18 °F (10:52 pm)
Humidity76.1 %88 % (8:52 pm)60 % (3:52 pm)
Barometer29.92 in29.99 in (11:52 am)29.73 in (1:52 am)
Wind Speed9.6 mph13.8 mph (5:52 am)
Wind Gust21.9 mph (11:40 am)
Weather ElementAverage
Visibility10 mi
Wind DirectionWSW (239.2 °)

Weather ElementTotal
Precipitation---
Heating Degree Days35.6 (Base 65)
Averaged from 26 records on February 5, 2013
WEATHER CONDITIONS BREAKOUT
WIND DIRECTION BREAKOUT
WEATHER BY HOUR - FEBRUARY 5, 2013
[ °C ]   °F
Local TimeTemperatureDewpointHumidityBarometerVisibilityWind DirectionWind SpeedGust SpeedPrecipitationEventsConditions
1:52 AM34.0 °F27.0 °F75 %29.73 in10.0 miWNW (300°)10.4 mphClear
2:52 AM32.0 °F26.1 °F79 %29.78 in10.0 miWNW (290°)6.9 mphClear
3:52 AM28.9 °F24.1 °F82 %29.80 in10.0 miWest (280°)8.1 mphClear
4:52 AM30.0 °F25.0 °F82 %29.82 in10.0 miWNW (300°)8.1 mphClear
5:52 AM30.0 °F24.1 °F79 %29.85 in10.0 miNW (310°)13.8 mphClear
6:52 AM28.9 °F21.9 °F75 %29.88 in10.0 miWNW (300°)10.4 mphClear
7:52 AM25.0 °F19.9 °F81 %29.92 in10.0 miWNW (300°)5.8 mphClear
8:52 AM28.0 °F21.9 °F78 %29.95 in10.0 miWNW (300°)10.4 mphClear
9:52 AM30.0 °F23.0 °F75 %29.96 in10.0 miNW (320°)11.5 mphClear
10:21 AM32.0 °F24.8 °F75 %29.92 in10.0 miWNW (300°)8.1 mphMostly Cloudy
10:52 AM34.0 °F25.0 °F70 %29.97 in10.0 miNW (310°)13.8 mphScattered Clouds
11:40 AM33.8 °F26.6 °F75 %29.94 in10.0 miNW (310°)12.7 mph21.9 mphMostly Cloudy
11:52 AM34.0 °F26.1 °F73 %29.99 in10.0 miWNW (290°)11.5 mphOvercast
12:52 PM35.1 °F26.1 °F70 %29.99 in10.0 miWNW (300°)11.5 mphMostly Cloudy
1:34 PM35.6 °F24.8 °F65 %29.93 in10.0 miNW (310°)10.4 mphScattered Clouds
1:52 PM37.0 °F26.1 °F65 %29.98 in10.0 miNW (320°)10.4 mphPartly Cloudy
2:52 PM37.0 °F25.0 °F62 %29.96 in10.0 miNNW (330°)6.9 mphMostly Cloudy
3:52 PM37.9 °F25.0 °F60 %29.96 in10.0 miNNW (340°)3.5 mphPartly Cloudy
4:52 PM36.0 °F25.0 °F64 %29.96 in10.0 miNNE (30°)4.6 mphClear
5:52 PM30.0 °F24.1 °F79 %29.96 in10.0 miEast (80°)11.5 mphClear
6:52 PM28.0 °F21.9 °F78 %29.96 in10.0 miEast (80°)12.7 mphClear
7:52 PM26.1 °F21.9 °F84 %29.99 in10.0 miESE (120°)9.2 mphClear
8:52 PM23.0 °F19.9 °F88 %29.96 in10.0 miEast (100°)8.1 mphClear
9:52 PM23.0 °F19.9 °F88 %29.95 in10.0 miEast (80°)6.9 mphClear
10:52 PM21.0 °F18.0 °F88 %29.93 in10.0 miEast (100°)13.8 mphClear
11:52 PM23.0 °F19.9 °F88 %29.91 in10.0 miESE (120°)9.2 mphScattered Clouds
Hourly data recorded from KMBG, located miles away from McLaughlin, South Dakota







STORIES FROM OUR PARTNERS